Weather in Merlo

Argentina     34°40′37″S   58°42′53″W
temp.,
°C
wind,
m/s
gust,
m/s
humid.,
%
clouds,
%
prec.,
mm/h
press.,
hPa
HPBL,
m
3 august, tue
tue300:00+9nnw26710 0.0 1028135
03:00+8nnw38750 0.0 1027170
06:00+7nnw12770 0.0 102839
09:00+8nnw24720 0.0 1029117
12:00+14nnw23480 0.0 1030487
15:00+17nnw223848 0.0 1028700
18:00+14ne224920 0.0 102815
21:00+11ne22595 0.0 102925
4 august, wed
wed400:00+10nne1165100 0.0 102911
03:00+9n22696 0.0 103018
06:00+8n227444 0.0 102917
09:00+9n137418 0.0 1030108
12:00+15nne23526 0.0 1030453
15:00+18ne234116 0.0 1028736
18:00+14ene25595 0.0 1027135
21:00+12ne27735 0.0 1028151
5 august, thu
thu500:00+11ne28855 0.0 1028181
03:00+10nne39821 0.0 1027203
06:00+9ne27894 0.0 1026170
09:00+10ne28920 0.0 1027243
12:00+16nne46630 0.0 1026557
15:00+20nne46500 0.0 1022985
18:00+16ne37695 0.0 1022197
21:00+14ne39821 0.0 1023196
6 august, fri
fri600:00+14ne311920 0.0 1022308
03:00+12nne28971 0.0 1022207
06:00+12nne39975 0.0 1021229
09:00+13nne39920 0.0 1021261
12:00+19nne35630 0.0 1020507
15:00+22n35470 0.0 10171020
18:00+18ene356411 0.0 1016121
21:00+16nne31073100 0.0 1016228
7 august, sat
sat700:00+16nne31078100 0.0 1016261
03:00+15n298692 0.0 1015210
06:00+14n27917 0.0 1014145
09:00+15n268577 0.0 1015165
12:00+21nnw2461100 0.0 1015426
15:00+24nw235064 0.0 1013795
18:00+21ese11630 0.0 101411
21:00+18sse267523 0.0 1016115